EHI
0 0 0 0 0 0 0 0 0 0 0 0 0 0 0 0 0 0 0 0 0 0 0 0 0 0 0 0 0 0 0 0 0 0 0 0 0 0
0 0 0 0 0 0 0 0 0 0 0 0 0 0 0 0 0 0 0 0 0 0 0 0 0 0 0 0 0 0 0 0 0 0 0 0 0 0
0 0 0 0 0 0 0 0 0 0 0 0 0 0 0 0 0 0 0 0 0 0 0 0 0 0 0 0 0 0 0 0 0 0 0 0 0 0
0 0 0 0 0 0 0 0 0 0 0 0 0 0 0 0 0 0 0 0 0 0 0 0 0 0 0 0 0 0 0 0 0 0 0 0 0 0
0 0 0 0 0 0 0 0 0 0 0 0 0 0 0 0 0 0 0 0 0 0 0 0 0 0 0 0 0 0 0 0 0 0 0 0 0 0
0 0 0 0 0 0 0 0 0 0 0 0 0 0 0 0 0 0 0 0 0 0 0 0 0 0 0 0 0 0 0 0 0 0 0 0 0 0
0 0 0 0 0 0 0 0 0 0 0 0 0 0 0 0 0 0 0 0 0 0 0 0 0 0 0 0 0 0 0 0 0 0 0 0 0 0
0 0 0 0 0 0 0 0 0 0 0 0 0 0 0 0 0 0 0 0 0 0 0 0 0 0 0 0 0 0 0 0 0 0 0 0 0 0
0 0 0 0 0 0 0 0 0 0 0 0 0 0 0 0 0 0 0 0 0 0 0 0 0 0 0 0 0 0 0 0 0 0 0 0 0 0
0 0 0 0 0 0 0 0 0 0 0 0 0 0 0 0 0 0 0 0 0 0 0 0 0 0 0 0 0 0 0 0 0 0 0 0 0 0
0 0 0 0 0 0 0 0 0 0 0 0 0 0 0 0 0 0 0 0 0 0 0 0 0 0 0 0 0 0 0 0 0 0 0 0 0 0
0 0 0 0 0 0 0 0 0 0 0 0 0 0 0 0 0 0 0 0 0 0 0 0 0 0 0 0 0 0 0 0 0 0 0 0 0 0
0 0 0 0 0 0 0 0 0 0 0 0 0 0 0 0 0 0 0 0 0 0 0 0 0 0 0 0 0 0 0 0 0 0 0 0 0 0
0 0 0 0 0 0 0 0 0 0 0 0 0 0 0 0 0 0 0 0 0 0 0 0 0 0 0 0 0 0 0 0 0 0 0 0 0 0
0 0 0 0 0 0 0 0 0 0 0 0 0 0 0 0 0 0 0 0 0 0 0 0 0 0 0 0 0 0 0 0 0 0 0 0 0 0
0 0 0 0 0 0 0 0 0 0 0 0 0 0 0 0 0 0 0 0 0 0 0 0 0 0 0 0 0 0 0 0 0 0 0 0 0 0
0 0 0 0 0 0 0 0 0 0 0 0 0 0 0 0 0 0 0 0 0 0 0 0 0 0 0 0 0 0 0 0 0 0 0 0 0 0
0 0 0 0 0 0 0 0 0 0 0 0 0 0 0 0 0 0 0 0 0 0 0 0 0 0 0 0 0 0 0 0 0 0 0 0 0 0
0 0 0 0 0 0 0 0 0 0 0 0 0 0 0 0 0 0 0 0 0 0 0 0 0 0 0 0 0 0 0 0 0 0 0 0 0 0
0 0 0 0 0 0 0 0 0 0 0 0 0 0 0 0 0 0 0 0 0 0 0 0 0 0 0 0 0 0 0 0 0 0 0 0 0 0
0 0 0 0 0 0 0 0 0 0 0 0 0 0 0 0 0 0 0 0 0 0 0 0 0 0 0 0 0 0 0 0 0 0 0 0 0 0
0 0 0 0 0 0 0 0 0 0 0 0 0 0 0 0 0 0 0 0 0 0 0 0 0 0 0 0 0 0 0 0 0 0 0 0 0 0
0 0 0 0 0 0 0 0 0 0 0 0 0 0 0 0 0 0 0 0 0 0 0 0 0 0 0 0 0 0 0 0 0 0 0 0 0 0
Wind_Speed
10 10 9 7 6 7 6 6 5 5 6 6 5 7 6 6 6 7 8 9 10 9 7 6 6 5 5 5 5 6 6 6 7 8 9 10 11 12
8 10 9 7 7 7 7 6 6 5 5 4 4 5 6 5 7 8 7 9 10 9 8 7 6 5 5 5 5 5 5 6 6 8 9 9 10 11
9 9 10 9 7 7 6 6 6 5 5 3 2 4 6 6 6 6 6 6 6 9 9 7 6 6 5 5 5 5 5 5 6 7 8 9 10 11
10 10 10 8 9 7 6 7 7 6 6 6 4 4 6 6 6 6 4 4 5 7 8 8 7 6 5 5 4 4 4 4 5 6 7 8 9 11
10 10 10 10 10 7 8 7 6 6 5 5 5 4 4 4 5 4 4 3 3 5 7 7 7 6 5 5 3 3 3 3 4 5 6 8 9 10
9 9 9 9 9 9 8 8 7 7 6 5 4 4 4 4 4 4 4 3 3 3 4 4 5 6 6 5 4 3 2 3 4 4 6 7 8 9
8 8 9 9 10 8 7 7 8 6 6 5 5 5 4 5 5 4 4 3 2 2 2 3 3 3 4 5 4 3 2 2 3 4 5 6 7 9
7 7 8 9 10 10 9 9 9 9 8 7 6 7 7 6 5 5 4 4 3 3 3 2 2 3 2 2 3 3 3 2 3 4 5 6 7 8
7 7 7 7 9 8 8 8 8 8 9 8 8 8 8 8 8 7 6 5 3 3 3 2 2 2 2 2 4 4 3 2 2 3 4 5 6 7
6 7 7 8 8 8 7 7 6 6 7 7 7 7 6 7 8 7 6 4 3 2 2 2 1 1 1 2 5 4 3 2 2 3 4 5 6 7
5 6 7 8 9 10 8 7 6 4 4 5 4 4 5 7 7 6 6 4 3 2 1 1 1 0 1 2 3 5 4 2 2 3 4 4 6 6
3 5 7 8 9 11 9 8 7 5 4 4 4 5 5 7 8 7 6 5 3 3 3 2 2 2 1 1 1 2 3 3 3 2 3 4 5 4
3 3 4 8 8 9 9 8 8 6 5 5 4 4 4 4 4 3 3 4 4 3 4 3 3 2 2 1 1 1 1 1 1 2 2 3 3 4
3 3 4 8 8 8 6 7 9 7 4 4 4 4 3 3 3 3 3 3 2 2 6 5 3 3 3 2 2 1 1 1 1 1 1 2 2 3
2 3 4 7 6 5 6 8 8 5 5 5 5 4 3 4 4 4 5 6 6 4 4 2 3 3 2 2 2 2 1 1 1 1 1 1 2 1
1 2 5 5 4 4 5 5 3 4 5 4 4 4 4 4 4 4 4 4 4 3 4 3 2 3 2 1 2 2 1 1 1 1 1 2 1 1
1 1 2 3 3 3 3 3 3 3 4 4 5 5 5 4 4 3 3 3 3 3 2 2 3 3 2 1 1 2 1 0 0 0 1 1 1 1
1 3 3 3 3 3 3 3 2 3 3 4 4 5 5 5 4 4 3 3 4 4 3 3 2 2 2 1 1 1 1 0 0 0 0 1 1 1
2 3 3 3 3 3 3 3 3 3 3 4 4 5 5 5 5 5 4 4 4 4 3 3 2 2 2 1 1 0 0 1 0 0 0 1 1 1
1 2 3 3 3 3 3 3 3 3 3 4 4 4 5 5 5 5 4 4 4 4 4 3 2 1 1 2 2 0 1 1 0 0 1 1 1 2
1 1 2 3 3 3 3 3 3 3 4 4 4 4 5 5 5 5 5 6 5 4 4 3 2 3 3 3 3 2 1 1 1 0 0 1 1 1
1 1 2 2 2 3 3 3 3 3 4 4 4 4 4 5 5 6 5 5 4 4 4 4 4 3 2 2 3 3 2 2 2 2 1 2 1 1
1 1 1 2 2 3 3 4 4 3 4 4 4 4 4 4 4 5 5 5 5 6 6 5 3 2 2 3 4 3 3 3 2 2 3 4 4 4
Wind_Direction
222 222 223 222 219 220 216 211 209 215 217 206 201 202 202 205 185 201 211 204 212 213 213 215 222 233 246 258 273 286 295 304 310 313 316 318 322 325
219 219 221 219 218 217 212 214 219 222 224 203 202 194 196 199 193 207 211 197 203 206 207 209 217 227 241 254 265 279 289 298 306 311 313 319 323 325
217 218 220 220 218 215 212 209 211 214 221 210 192 189 196 198 196 206 208 204 201 200 205 208 214 223 234 245 261 273 282 294 304 312 317 321 322 324
218 220 222 219 218 215 210 210 208 210 213 208 192 189 200 197 195 199 203 206 206 196 202 206 212 219 225 233 244 263 281 297 306 311 316 320 322 324
219 221 222 216 217 213 209 208 205 202 205 204 193 183 189 185 187 193 199 202 204 194 199 204 210 217 218 218 228 253 277 292 300 309 315 321 324 326
223 221 223 219 217 212 209 207 201 193 192 196 186 179 176 175 179 183 192 199 197 187 201 204 204 209 207 205 218 234 259 278 296 306 314 321 325 327
230 224 222 217 217 213 208 202 197 192 188 191 191 181 177 174 188 185 192 181 188 186 194 195 192 203 197 201 210 224 247 275 297 307 313 320 326 328
232 229 222 213 208 209 208 203 200 195 193 195 198 193 193 189 181 178 171 171 199 182 189 197 189 202 197 190 201 219 236 263 289 302 309 317 323 325
233 227 224 210 203 206 203 197 198 202 202 201 200 199 194 190 180 181 185 190 196 159 170 190 187 208 188 192 194 207 219 243 283 299 308 318 323 326
240 227 215 208 201 196 198 198 202 207 211 213 210 202 193 185 186 181 173 144 101 131 156 182 198 214 189 194 186 204 215 227 276 302 310 320 323 324
239 227 213 206 191 184 189 188 193 198 185 184 180 167 160 164 159 144 146 147 149 163 167 164 166 130 206 211 191 201 210 213 256 295 308 321 326 321
242 228 202 197 188 185 190 187 191 190 173 162 157 151 161 158 160 166 166 164 150 166 167 156 146 133 195 229 227 205 210 216 233 261 295 314 325 318
240 223 198 185 188 190 195 195 187 177 171 165 160 156 156 156 155 150 158 164 159 161 160 154 151 158 162 174 234 244 240 238 235 244 255 295 313 324
234 225 198 181 187 191 193 179 165 163 163 160 160 161 161 154 140 124 103 79 70 138 157 154 153 166 155 161 189 227 260 236 270 292 294 275 279 305
229 214 195 179 180 182 170 166 165 166 161 164 167 162 153 142 128 112 95 85 71 75 117 133 145 156 164 168 165 183 203 238 257 289 292 287 293 298
187 161 160 160 164 163 159 156 164 169 164 162 152 140 133 134 134 131 125 119 102 81 63 72 107 143 149 147 164 179 185 193 213 279 295 294 297 309
215 180 160 158 156 154 151 147 147 156 153 146 146 147 143 138 135 135 133 133 127 132 115 77 67 69 67 119 143 149 148 137 200 257 290 288 296 319
176 168 168 168 168 165 162 155 151 155 151 147 149 152 151 150 146 144 144 138 134 137 132 129 118 102 105 70 45 151 136 112 291 270 290 288 298 333
190 176 175 174 169 165 163 161 158 157 151 151 152 154 152 152 154 155 154 145 139 137 139 147 157 149 142 127 87 338 165 151 153 238 289 305 296 315
196 183 180 175 172 168 162 156 150 154 157 155 153 155 156 158 159 160 162 158 148 140 142 150 161 166 163 146 140 152 271 180 155 95 15 356 349 324
207 197 187 176 172 167 161 155 158 166 162 157 155 159 163 162 163 162 160 157 148 148 155 152 124 103 98 110 110 99 61 14 355 209 49 27 3 349
228 205 194 177 172 168 162 159 159 163 162 161 161 164 167 166 163 162 160 158 155 146 134 121 126 126 117 118 115 110 92 56 55 84 54 12 355 322
245 218 200 183 175 169 166 164 167 170 170 169 167 165 164 162 159 157 153 148 140 135 130 128 124 100 90 111 116 110 104 94 80 73 60 33 24 26